Find Starlink 32091

NORAD ID: 59684 Int'l Des: 2024-086 Owner: SPXS Country: US Constellation: starlink operational
LEOCIRCULAR

現在のビュー

3D地球を読み込み中...

About Starlink 32091

Starlink 32091 (NORAD 59684) is a starlink constellation satellite (v2 mini) launched May 8, 2024 by SPXS of US. It operates in LEO, CIRCULAR orbit with a mass of 730.00 kg.

Starlink 32091について

説明を読み込み中...

次回通過

Passes for default location (London). Set your location on the main map for personalized predictions.

高度履歴

Loading altitude history...

軌道要素

1 59684U 24086C 26170.13535373 .00000911 00000-0 42647-4 0 9996
2 59684 43.0064 199.4950 0002993 295.5825 64.4717 15.27574351119726
Epoch: Jun 19, 2026 • Age: 24 hours

現在のステータス

高度 484.6 km
速度 7.62 km/s
衛星直下点 -5.84°S, 57.52°E
打ち上げ日 May 8, 2024
運用期間 2.1 years
タイプ internet

技術仕様

分類 Payload
質量 730.00 kg
乾燥質量 700.00 kg
総質量 730.00 kg
長さ 0.30 m
直径 4.10 m
スパン 29.00 m
形状 Box + pan
製造者 SPXS
バスタイプ Starlink V2M
フェーズステータス In Orbit
所有者/国 SPXS/US

Most Searched